Location: Asheville, NC
(35.6000°N, 82.5500°W)
Time: 07:14:51
(UTC-04:00)

Envisat - Pass Details

Date: 10 February 2018
Orbit: 764 x 766 km, 98.2° (Epoch: 20 May)

Event Time Altitude Azimuth Distance (km) Brightness Sun altitude
Exits shadow 20:43:27 30° 219° (SW) 1,353 4.5 -32.2°
Maximum altitude 20:45:13 39° 262° (W) 1,125 4.2 -32.6°
Drops below altitude 10° 20:49:58 10° 331° (NNW) 2,303 5.8 -33.5°
Sets 20:52:25 0° 339° (NNW) 3,233 6.6 -34.0°
